Weather History for KHQU - November, 2013

Change the Weather History Date:

Friday, November 15, 2013

  Actual Average (KDBN) Record (KDBN)
Temperature  
Mean Temperature 45 °F -  
Max Temperature 60 °F 68 °F 85 °F (1958)
Min Temperature 30 °F 38 °F 22 °F (1969)
Degree Days  
Heating Degree Days 20    
Moisture  
Dew Point 45 °F    
Average Humidity 89    
Maximum Humidity 99    
Minimum Humidity 70    
Precipitation  
Precipitation 0.00 in - - ()
Sea Level Pressure  
Sea Level Pressure 30.29 in    
Wind  
Wind Speed 1 mph (East)    
Max Wind Speed 6 mph    
Max Gust Speed -    
Visibility 10 miles    
Events      
Averages and records for this station are not official NWS values.
T = Trace of Precipitation, MM = Missing Value Source: NWS Daily Summary

Daily Weather History Graph

Daily Weather History Graph

Search for Another Location

Airport or City:

Trip Planner

Search our weather history database for the weather conditions in past years. The results will help you decide how hot, cold, wet, or windy it might be!

Date:

Astronomy

Nov. 15, 2013 Rise Set
Actual Time 7:01 AM EST 5:27 PM EST
Civil Twilight 6:35 AM EST 5:53 PM EST
Nautical Twilight 6:05 AM EST 6:23 PM EST
Astronomical Twilight 5:35 AM EST 6:53 PM EST
Moon 4:19 PM EST (11/15) 5:02 AM EST (11/15)
Length of Visible Light 11h 18m
Length of Day
10h 25m
Waxing Gibbous, 96% of the Moon is Illuminated
Nov 15
Waxing Gibbous
Nov 17
Full
Nov 25
Last Quarter
Dec 2
New
Dec 9
First Quarter

Hourly Weather History & Observations

Time (EST) Temp. Dew Point Humidity Pressure Visibility Wind Dir Wind Speed Gust Speed Precip Events Conditions
12:15 AM 32.2 °F 30.4 °F 93% 30.37 in 10.0 mi Calm Calm - N/A   Clear
12:35 AM 32.0 °F 29.7 °F 91% 30.36 in 10.0 mi Calm Calm - N/A   Clear
12:55 AM 31.8 °F 30.0 °F 93% 30.37 in 10.0 mi Calm Calm - N/A   Clear
1:15 AM 32.0 °F 30.4 °F 94% 30.36 in 10.0 mi Calm Calm - N/A   Clear
1:55 AM 30.7 °F 29.5 °F 95% 30.35 in 10.0 mi Calm Calm - N/A   Clear
2:15 AM 30.9 °F 30.6 °F 99% 30.35 in 10.0 mi Calm Calm - N/A   Clear
2:35 AM 32.0 °F 31.5 °F 98% 30.35 in 10.0 mi Calm Calm - N/A   Clear
2:55 AM 32.4 °F 32.0 °F 99% 30.35 in 10.0 mi Calm Calm - N/A   Clear
3:15 AM 32.9 °F 32.0 °F 96% 30.34 in 10.0 mi Calm Calm - N/A   Clear
3:35 AM 33.3 °F 32.0 °F 95% 30.34 in 10.0 mi Calm Calm - N/A   Clear
3:55 AM 32.9 °F 32.2 °F 97% 30.34 in 10.0 mi Calm Calm - N/A   Clear
4:15 AM 34.0 °F 33.3 °F 97% 30.34 in 10.0 mi Calm Calm - N/A   Clear
4:35 AM 34.7 °F 33.6 °F 96% 30.34 in 10.0 mi Calm Calm - N/A   Clear
4:55 AM 34.9 °F 33.6 °F 95% 30.34 in 10.0 mi Calm Calm - N/A   Clear
5:15 AM 35.1 °F 34.2 °F 97% 30.33 in 10.0 mi Calm Calm - N/A   Clear
5:35 AM 35.6 °F 34.7 °F 97% 30.33 in 10.0 mi Calm Calm - N/A   Clear
5:55 AM 35.6 °F 34.9 °F 97% 30.34 in 10.0 mi Calm Calm - N/A   Clear
6:15 AM 36.5 °F 35.1 °F 95% 30.34 in 10.0 mi Calm Calm - N/A   Clear
6:35 AM 36.9 °F 36.0 °F 97% 30.34 in 10.0 mi Calm Calm - N/A   Mostly Cloudy
6:55 AM 37.9 °F 36.7 °F 95% 30.34 in 10.0 mi Calm Calm - N/A   Mostly Cloudy
7:15 AM 37.4 °F 36.5 °F 97% 30.34 in 10.0 mi Calm Calm - N/A   Scattered Clouds
7:35 AM 38.5 °F 38.1 °F 99% 30.35 in 10.0 mi Calm Calm - N/A   Mostly Cloudy
7:55 AM 39.9 °F 38.8 °F 96% 30.36 in 10.0 mi Calm Calm - N/A   Mostly Cloudy
8:15 AM 41.0 °F 39.4 °F 94% 30.35 in 10.0 mi Calm Calm - N/A   Scattered Clouds
8:35 AM 41.9 °F 40.1 °F 93% 30.36 in 10.0 mi Calm Calm - N/A   Scattered Clouds
8:55 AM 42.8 °F 40.8 °F 93% 30.35 in 10.0 mi Calm Calm - N/A   Scattered Clouds
9:15 AM 43.9 °F 41.4 °F 91% 30.35 in 10.0 mi Calm Calm - N/A   Scattered Clouds
9:35 AM 45.9 °F 42.8 °F 89% 30.35 in 10.0 mi Calm Calm - N/A   Scattered Clouds
9:55 AM 48.6 °F 44.6 °F 86% 30.35 in 10.0 mi ENE 3.5 mph - N/A   Scattered Clouds
10:15 AM 50.7 °F 44.8 °F 80% 30.35 in 10.0 mi East 4.6 mph - N/A   Overcast
10:35 AM 51.4 °F 45.1 °F 79% 30.34 in 10.0 mi Calm Calm - N/A   Overcast
10:55 AM 52.9 °F 45.5 °F 76% 30.33 in 7.0 mi Calm Calm - N/A   Overcast
11:15 AM 54.1 °F 46.4 °F 75% 30.33 in 10.0 mi East 3.5 mph - N/A   Overcast
11:35 AM 55.0 °F 47.5 °F 76% 30.32 in 10.0 mi ESE 4.6 mph - N/A   Overcast
11:55 AM 55.8 °F 48.2 °F 76% 30.31 in 10.0 mi East 3.5 mph - N/A   Overcast
12:15 PM 56.3 °F 48.2 °F 74% 30.29 in 10.0 mi East 4.6 mph - N/A   Mostly Cloudy
12:35 PM 57.0 °F 48.6 °F 73% 30.27 in 10.0 mi East 5.8 mph - N/A   Overcast
12:55 PM 58.1 °F 49.1 °F 72% 30.26 in 10.0 mi Calm Calm - N/A   Scattered Clouds
1:15 PM 58.8 °F 49.8 °F 72% 30.24 in 10.0 mi ESE 3.5 mph - N/A   Scattered Clouds
1:35 PM 59.9 °F 50.2 °F 70% 30.24 in 10.0 mi East 4.6 mph - N/A   Scattered Clouds
1:55 PM 59.9 °F 50.5 °F 71% 30.23 in 10.0 mi Calm Calm - N/A   Scattered Clouds
2:15 PM 59.9 °F 50.9 °F 72% 30.23 in 10.0 mi Calm Calm - N/A   Scattered Clouds
2:35 PM 60.3 °F 51.1 °F 72% 30.22 in 10.0 mi East 4.6 mph - N/A   Scattered Clouds
2:55 PM 60.4 °F 51.3 °F 72% 30.21 in 10.0 mi East 3.5 mph - N/A   Clear
3:15 PM 60.6 °F 51.6 °F 72% 30.20 in 10.0 mi East 3.5 mph - N/A   Mostly Cloudy
3:35 PM 60.4 °F 52.0 °F 74% 30.21 in 10.0 mi Calm Calm - N/A   Overcast
3:55 PM 60.8 °F 52.7 °F 75% 30.21 in 10.0 mi East 3.5 mph - N/A   Overcast
4:15 PM 60.1 °F 52.9 °F 77% 30.21 in 10.0 mi Calm Calm - N/A   Overcast
4:35 PM 59.5 °F 53.6 °F 81% 30.21 in 10.0 mi Calm Calm - N/A   Overcast
4:55 PM 58.8 °F 53.4 °F 82% 30.21 in 10.0 mi Calm Calm - N/A   Overcast
5:15 PM 57.6 °F 53.2 °F 85% 30.22 in 10.0 mi Calm Calm - N/A   Overcast
5:35 PM 56.7 °F 53.2 °F 88% 30.22 in 10.0 mi Calm Calm - N/A   Overcast
5:55 PM 56.3 °F 53.1 °F 89% 30.22 in 10.0 mi Calm Calm - N/A   Overcast
6:15 PM 55.9 °F 53.1 °F 90% 30.22 in 10.0 mi Calm Calm - N/A   Overcast
6:35 PM 55.4 °F 53.2 °F 92% 30.23 in 10.0 mi Calm Calm - N/A   Overcast
6:55 PM 54.7 °F 53.4 °F 96% 30.23 in 10.0 mi Calm Calm - N/A   Overcast
7:15 PM 54.9 °F 53.6 °F 96% 30.22 in 10.0 mi Calm Calm - N/A   Overcast
7:35 PM 54.0 °F 53.2 °F 97% 30.23 in 10.0 mi Calm Calm - N/A   Overcast
7:55 PM 53.6 °F 52.9 °F 97% 30.22 in 10.0 mi Calm Calm - N/A   Overcast
8:15 PM 53.1 °F 52.9 °F 99% 30.23 in 10.0 mi Calm Calm - N/A   Overcast
8:35 PM 53.2 °F 53.1 °F 99% 30.24 in 10.0 mi Calm Calm - N/A   Overcast
8:55 PM 53.6 °F 53.1 °F 98% 30.24 in 10.0 mi Calm Calm - N/A   Overcast
9:15 PM 54.0 °F 53.4 °F 98% 30.24 in 10.0 mi Calm Calm - N/A   Overcast
9:35 PM 54.3 °F 53.2 °F 96% 30.26 in 10.0 mi NW 3.5 mph - N/A   Overcast
9:55 PM 54.5 °F 53.1 °F 95% 30.25 in 10.0 mi Calm Calm - N/A   Overcast
10:15 PM 54.5 °F 52.9 °F 94% 30.25 in 10.0 mi Calm Calm - N/A   Overcast
10:35 PM 54.7 °F 52.9 °F 94% 30.24 in 10.0 mi Calm Calm - N/A   Overcast
10:55 PM 54.5 °F 53.1 °F 95% 30.24 in 10.0 mi Calm Calm - N/A   Overcast
11:15 PM 54.5 °F 53.1 °F 95% 30.24 in 10.0 mi Calm Calm - N/A   Overcast
11:35 PM 54.5 °F 53.1 °F 95% 30.24 in 10.0 mi Calm Calm - N/A   Overcast
11:55 PM 54.5 °F 53.2 °F 96% 30.24 in 10.0 mi Calm Calm - N/A   Overcast